Regional Weather Roundup
Issued by NWS

Home | Current Version | Previous Version | Graphics & Text | Print | Product List | Glossary On
Versions: 1 2 3 4 5 6 7 8 9 10 11 12 13 14 15 16 17 18 19 20 21 22 23 24 25 26 27 28 29 30 31 32 33 34 35 36 37 38 39 40 41 42 43 44 45 46 47 48 49 50
000
ASUS43 KIND 190259
RWRIN

WEATHER ROUNDUP FOR INDIANA
NATIONAL WEATHER SERVICE INDIANAPOLIS IN
1000 PM EST SAT NOV 18 2017

NOTE: "FAIR" INDICATES FEW OR NO CLOUDS BELOW 12,000 FEET WITH NO
SIGNIFICANT WEATHER AND/OR OBSTRUCTIONS TO VISIBILITY.

* - STATION DOES NOT REPORT WEATHER SUCH AS PRECIPITATION OR FOG.

+ - STATION NOT QUALITY CONTROLLED BY THE NATIONAL WEATHER SERVICE.
    USE DATA WITH CAUTION...ESPECIALLY DEWPOINT AND RELATIVE
    HUMIDITY OBSERVATIONS.

INZ001>003-010>013-019-020-190400-
NORTHWEST INDIANA

CITY           SKY/WX    TMP DP  RH WIND       PRES   REMARKS
GARY /AIRPORT/ CLOUDY    41  28  60 NW16G32   29.76R
KNOX *+        CLOUDY    39  34  81 NW21G28   29.68R WCI  29
LA PORTE +     CLOUDY    39  32  76 N24G32    29.69R WCI  28
MONTICELLO +   CLOUDY    39  33  79 NW20G28   29.71R WCI  29

$$

LMZ046-743>745-190400-
SOUTHERN LAKE MICHIGAN

STATION/POSITION TIME  TEMP    WIND        PRES    WAVE
                       AIR SEA DIR/SP/G            HT
                 (UTC) (F)     (DEG/KT/KT) (MB)    (FT)
BURNS HARBOR     0240   42     320/ 21/ 28 1007.1R
MICHIGAN CITY    0230   41     330/ 30/ 32   N/A

$$

INZ004-005-014>016-021>024-190400-
NORTH CENTRAL INDIANA

CITY           SKY/WX    TMP DP  RH WIND       PRES   REMARKS
GOSHEN         LGT RAIN  40  35  83 NW20G30   29.61R WCI  30
PERU/GRISSOM   CLOUDY    40  39  96 NW22G31   29.65R WCI  30
SOUTH BEND     CLOUDY    39  36  89 NW26G35   29.66R WCI  28
WARSAW +       LGT RAIN  39  37  93 NW15G26   29.61R WCI  31

$$

INZ006>009-017-018-025>027-190400-
NORTHEAST INDIANA

CITY           SKY/WX    TMP DP  RH WIND       PRES   REMARKS
AUBURN +       CLOUDY    39  36  87 NW12      29.57R WCI  32
FORT WAYNE     CLOUDY    42  37  82 NW13      29.58R
KENDALLVILLE + LGT RAIN  39  37  93 NW10G21   29.56R WCI  32

$$

INZ028-029-035-036-043>045-051>053-190400-
WEST CENTRAL INDIANA

CITY           SKY/WX    TMP DP  RH WIND       PRES   REMARKS
LAFAYETTE      CLOUDY    39  32  76 NW17G25   29.75R WCI  30
TERRE HAUTE    CLOUDY    40  31  70 NW17G29   29.81R WCI  31

$$

INZ030>032-037>040-046>048-054>057-064-065-190400-
CENTRAL INDIANA

CITY           SKY/WX    TMP DP  RH WIND       PRES   REMARKS
COLUMBUS       LGT RAIN  39  37  93 NW21G30   29.69R WCI  29
FRANKFORT +    CLOUDY    41  35  80 NW21G33   29.73R
INDIANAPOLIS   DRIZZLE   39  36  89 NW22G35   29.72R WCI  29
-EAGLE CREEK   CLOUDY    39  36  89 NW22G35   29.70R WCI  29
KOKOMO +       LGT RAIN  40  38  93 NW23G33   29.66R WCI  30
MT COMFORT *+  CLOUDY    39  39 100 NW18G28   29.67R WCI  30
SHELBYVILLE    LGT RAIN  41  38  89 NW20G37   29.67R FOG

$$

INZ033-034-041-042-049-050-058-059-190400-
EAST CENTRAL INDIANA

CITY           SKY/WX    TMP DP  RH WIND       PRES   REMARKS
MUNCIE         CLOUDY    43  38  82 NW15      29.61R
RICHMOND +     LGT RAIN  37  37 100 NW18G25   29.57R WCI  27

$$

INZ060-061-067>069-081>083-085>088-190400-
SOUTHWEST INDIANA

CITY           SKY/WX    TMP DP  RH WIND       PRES   REMARKS
EVANSVILLE     CLOUDY    42  40  92 W9G17     29.87R
HUNTINGBURG +  CLOUDY    41  38  89 NW15      29.83R

$$

INZ062-063-066-070>080-084-089>092-190400-
SOUTH CENTRAL AND SOUTHEAST INDIANA

CITY           SKY/WX    TMP DP  RH WIND       PRES   REMARKS
BLOOMINGTON    CLOUDY    40  34  79 NW13G24   29.76R WCI  32
MADISON *+     CLOUDY    37  36  93 W12G21    29.71R WCI  30
SEYMOUR +      CLOUDY    41  37  87 NW15G23   29.72R

$$




USA.gov is the U.S. government's official web portal to all federal, state and local government web resources and services.